This demonstration page uses our WeatherBlox Daily Observations layout. Learn more.

Left ArrowRight Arrow

Hourly Observations for August 18, 2022

Temp ( °F °C ) Dew Point ( °F °C ) Humidity (%) Winds ( mph kmh ) Pressure ( in mb ) Visibility ( mi km ) Precip ( " mm )
12:15 am 00:15 Clear 63 17 60 15.4 90 90 S 3 6 30.09 1019 10 16 0.00 0.00
12:35 am 00:35 Clear 63 17 59 15.2 89 89 S 5 7 30.09 1019 10 16 0.00 0.00
12:55 am 00:55 Clear 62 16.5 59 15 91 91 SSE 3 6 30.08 1019 10 16 0.00 0.00
1:15 am 01:15 Clear 61 16.2 58 14.7 91 91 S 5 7 30.08 1019 10 16 0.00 0.00
1:35 am 01:35 Clear 60 15.8 58 14.5 92 92 S 5 7 30.08 1019 10 16 0.00 0.00
1:55 am 01:55 Clear 61 16 58 14.5 91 91 S 6 9 30.08 1019 10 16 0.00 0.00
2:15 am 02:15 Clear 61 16 58 14.6 91 91 S 5 7 30.08 1019 10 16 0.00 0.00
2:35 am 02:35 Clear 60 15.7 58 14.5 93 93 S 3 6 30.08 1019 10 16 0.00 0.00
2:55 am 02:55 Clear 61 16.2 58 14.4 89 89 S 5 7 30.08 1018 10 16 0.00 0.00
3:15 am 03:15 Clear 60 15.7 57 14.1 90 90 S 5 7 30.08 1019 10 16 0.00 0.00
3:35 am 03:35 Clear 60 15.5 57 14 91 91 Calm 30.07 1018 10 16 0.00 0.00
3:55 am 03:55 Clear 61 15.9 58 14.2 90 90 Calm 30.07 1018 10 16 0.00 0.00
4:15 am 04:15 Clear 60 15.3 57 13.8 91 91 S 3 6 30.07 1018 10 16 0.00 0.00
4:35 am 04:35 Clear 61 16 57 13.8 87 87 S 5 7 30.08 1019 10 16 0.00 0.00
4:55 am 04:55 Clear 59 15.1 56 13.5 90 90 Calm 30.08 1019 10 16 0.00 0.00
5:15 am 05:15 Clear 57 13.8 54 12.3 91 91 Calm 30.10 1019 10 16 0.00 0.00
5:35 am 05:35 Clear 55 12.9 54 12 94 94 Calm 30.10 1019 10 16 0.00 0.00
5:55 am 05:55 Clear 55 13 54 12.4 96 96 Calm 30.09 1019 10 16 0.00 0.00
6:15 am 06:15 Clear 55 12.6 54 12.1 97 97 Calm 30.10 1019 10 16 0.00 0.00
6:35 am 06:35 Clear 55 12.8 54 12.2 96 96 Calm 30.10 1019 10 16 0.00 0.00
6:55 am 06:55 Sunny with Mist and Fog 55 12.5 54 12.1 97 97 Calm 30.10 1019 4 6 0.00 0.00
7:15 am 07:15 Sunny with Mist and Fog 55 12.7 54 12.2 97 97 Calm 30.10 1019 4 6 0.00 0.00
7:35 am 07:35 Sunny with Mist and Fog 56 13.3 55 12.9 97 97 Calm 30.09 1019 4 6 0.00 0.00
7:55 am 07:55 Sunny with Mist and Fog 58 14.4 57 13.9 97 97 Calm 30.08 1019 4 6 0.00 0.00
8:15 am 08:15 Sunny 61 16.2 59 15.2 94 94 Calm 30.05 1018 7 11 0.00 0.00
8:35 am 08:35 Sunny 64 17.8 60 15.3 85 85 Calm 30.04 1017 10 16 0.00 0.00
8:55 am 08:55 Sunny 66 19.1 61 16.1 83 83 Calm 30.03 1017 10 16 0.00 0.00
9:15 am 09:15 Sunny 70 21 62 16.6 76 76 SW 5 7 30.00 1016 10 16 0.00 0.00
9:35 am 09:35 Sunny 72 22.1 62 16.7 71 71 SW 6 9 29.99 1016 10 16 0.00 0.00
9:55 am 09:55 Sunny 74 23.3 62 16.5 66 66 SW 9 15 29.98 1015 10 16 0.00 0.00
10:15 am 10:15 Sunny 76 24.2 62 16.5 62 62 WSW 7 11 29.96 1015 10 16 0.00 0.00
10:35 am 10:35 Sunny 76 24.6 61 16 59 59 WSW 9 15 29.96 1015 10 16 0.00 0.00
10:55 am 10:55 Sunny 78 25.3 61 16.3 57 57 WSW 9 15 29.95 1014 10 16 0.00 0.00
11:15 am 11:15 Sunny 79 26 60 15.7 53 53 SW 12 19 29.94 1014 10 16 0.00 0.00
11:35 am 11:35 Sunny 80 26.5 61 15.9 52 52 WSW 9 15 29.94 1014 10 16 0.00 0.00
11:55 am 11:55 Sunny 81 27.1 61 16.1 51 51 SW 8 13 29.92 1013 10 16 0.00 0.00
12:15 pm 12:15 Sunny 82 27.5 61 16.1 50 50 SW 8 13 29.91 1013 10 16 0.00 0.00
12:35 pm 12:35 Sunny 83 28.4 62 16.4 48 48 WSW 7 11 29.90 1013 10 16 0.00 0.00
12:55 pm 12:55 Sunny 84 28.8 61 16.1 46 46 W 7 11 29.89 1012 10 16 0.00 0.00
1:15 pm 13:15 Sunny 85 29.2 61 16.3 46 46 SW 9 15 29.88 1012 10 16 0.00 0.00
1:35 pm 13:35 Sunny 85 29.5 61 16.1 44 44 WSW 8 13 29.87 1012 10 16 0.00 0.00
1:55 pm 13:55 Sunny 86 30.1 60 15.7 42 42 W 7 11 29.86 1011 10 16 0.00 0.00
2:15 pm 14:15 Sunny 87 30.8 60 15.8 40 40 WSW 7 11 29.84 1011 10 16 0.00 0.00
2:35 pm 14:35 Sunny 87 30.5 59 14.9 39 39 SW 7 11 29.85 1011 10 16 0.00 0.00
2:55 pm 14:55 Sunny 87 30.7 59 15.2 39 39 NW 3 6 29.83 1010 7 11 0.00 0.00
3:15 pm 15:15 Hazy 89 31.4 59 15.2 38 38 WSW 5 7 29.82 1010 5 8 0.00 0.00
3:35 pm 15:35 Sunny 90 32 59 15.1 36 36 W 6 9 29.80 1009 10 16 0.00 0.00
3:55 pm 15:55 Sunny 90 32.1 59 15.1 36 36 SW 5 7 29.80 1009 10 16 0.00 0.00
4:15 pm 16:15 Sunny 91 32.9 58 14.4 33 33 SSW 13 20 29.78 1008 10 16 0.00 0.00
4:35 pm 16:35 Sunny 91 32.9 55 12.6 29 29 W 9 15 29.78 1008 10 16 0.00 0.00
4:55 pm 16:55 Sunny 91 32.9 55 12.9 30 30 WSW 6 9 29.77 1008 10 16 0.00 0.00
5:15 pm 17:15 Sunny 92 33.2 56 13.2 30 30 W 7 11 29.75 1008 10 16 0.00 0.00
5:35 pm 17:35 Sunny 91 32.7 57 13.7 32 32 WSW 6 9 29.75 1007 10 16 0.00 0.00
5:55 pm 17:55 Partly Cloudy 90 32.4 58 14.4 34 34 W 6 9 29.75 1007 10 16 0.00 0.00
6:15 pm 18:15 Partly Cloudy 89 31.9 59 15.1 36 36 W 7 11 29.76 1008 10 16 0.00 0.00
6:35 pm 18:35 Sunny 88 31.3 61 16.1 40 40 W 8 13 29.75 1007 10 16 0.00 0.00
6:55 pm 18:55 Sunny 87 30.4 60 15.5 41 41 W 5 7 29.76 1008 10 16 0.00 0.00
7:15 pm 19:15 Sunny 86 29.8 61 16.1 44 44 Calm 29.76 1008 10 16 0.00 0.00
7:35 pm 19:35 Sunny 86 29.9 61 15.9 43 43 Calm 29.76 1008 10 16 0.00 0.00
7:55 pm 19:55 Sunny 85 29.6 60 15.3 42 42 Calm 29.75 1008 10 16 0.00 0.00
8:15 pm 20:15 Sunny 80 26.6 64 17.9 59 59 N 6 9 29.80 1009 10 16 0.00 0.00
8:35 pm 20:35 Clear 75 23.8 66 19 75 75 N 5 7 29.82 1010 10 16 0.00 0.00
8:55 pm 20:55 Partly Cloudy 76 24.7 62 16.4 60 60 NNE 8 13 29.82 1010 10 16 0.00 0.00
9:15 pm 21:15 Partly Cloudy 74 23.4 61 16 63 63 ENE 8 13 29.84 1011 10 16 0.00 0.00
9:35 pm 21:35 Clear 72 22 64 17.6 76 76 NNE 6 9 29.85 1011 10 16 0.00 0.00
9:55 pm 21:55 Clear 70 21 64 18 83 83 ENE 5 7 29.87 1012 10 16 0.00 0.00
10:15 pm 22:15 Clear 70 20.9 64 17.9 83 83 E 5 7 29.88 1012 10 16 0.00 0.00
10:35 pm 22:35 Clear 69 20.8 64 17.7 82 82 ESE 7 11 29.88 1012 10 16 0.00 0.00
10:55 pm 22:55 Clear 69 20.5 63 17.2 81 81 N 6 9 29.90 1012 10 16 0.00 0.00
11:15 pm 23:15 Clear 67 19.5 62 16.9 85 85 NNE 9 15 29.91 1013 10 16 0.00 0.00
11:35 pm 23:35 Clear 69 20.3 62 16.5 79 79 E 5 7 29.90 1013 10 16 0.00 0.00
11:55 pm 23:55 Clear 66 19 62 16.6 86 86 ENE 5 7 29.92 1013 10 16 0.00 0.00

Powered by AerisWeather